TimeCST,TemperatureF,Dew PointF,Humidity,Sea Level PressureIn,VisibilityMPH,Wind Direction,Wind SpeedMPH,Gust SpeedMPH,PrecipitationIn,Events,Conditions,WindDirDegrees,DateUTC
12:53 AM,54.0,54.0,100,30.19,10.0,ENE,11.5,-,0.07,,Overcast,70,2013-01-10 06:53:00
1:53 AM,55.0,54.0,96,30.15,10.0,ENE,11.5,-,0.07,,Overcast,60,2013-01-10 07:53:00
2:29 AM,55.4,55.4,100,30.15,10.0,NNE,10.4,-,0.04,,Overcast,30,2013-01-10 08:29:00
2:46 AM,55.4,55.4,100,30.14,10.0,NNE,11.5,-,0.06,,Overcast,20,2013-01-10 08:46:00
2:53 AM,55.9,55.0,97,30.13,10.0,NE,8.1,-,0.06,,Overcast,50,2013-01-10 08:53:00
3:53 AM,55.9,55.0,97,30.12,10.0,NNE,8.1,-,0.07,,Overcast,30,2013-01-10 09:53:00
4:53 AM,55.9,55.9,100,30.09,10.0,NE,9.2,-,0.05,,Overcast,40,2013-01-10 10:53:00
5:00 AM,55.4,55.4,100,30.08,10.0,NE,10.4,-,0.01,Rain,Light Rain,40,2013-01-10 11:00:00
5:11 AM,55.4,55.4,100,30.06,8.0,NE,11.5,-,0.02,Rain,Light Rain,40,2013-01-10 11:11:00
5:16 AM,55.4,55.4,100,30.06,8.0,NNE,11.5,-,0.03,Rain,Light Rain,20,2013-01-10 11:16:00
5:41 AM,55.4,55.4,100,30.11,7.0,NW,9.2,-,0.05,Rain,Light Rain,320,2013-01-10 11:41:00
5:53 AM,55.0,55.0,100,30.11,5.0,NNW,8.1,-,0.06,Rain,Light Rain,330,2013-01-10 11:53:00
6:53 AM,55.0,55.0,100,30.09,5.0,ENE,6.9,-,0.05,Rain,Light Rain,60,2013-01-10 12:53:00
7:00 AM,55.4,55.4,100,30.09,5.0,NE,8.1,-,0.01,Rain,Light Rain,50,2013-01-10 13:00:00
7:40 AM,55.4,55.4,100,30.09,6.0,East,4.6,-,0.04,Rain,Light Rain,90,2013-01-10 13:40:00
7:53 AM,57.0,57.0,100,30.10,5.0,East,3.5,-,0.05,Rain,Light Rain,100,2013-01-10 13:53:00
8:08 AM,55.4,55.4,100,30.11,4.0,Calm,Calm,-,0.02,Rain,Light Rain,0,2013-01-10 14:08:00
8:41 AM,55.4,55.4,100,30.14,3.0,Calm,Calm,-,0.04,Rain,Rain,0,2013-01-10 14:41:00
8:43 AM,55.4,55.4,100,30.14,2.5,Calm,Calm,-,N/A,Rain,Rain,0,2013-01-10 14:43:00
8:53 AM,55.9,55.9,100,30.13,2.5,East,3.5,-,0.05,Rain,Rain,90,2013-01-10 14:53:00
9:02 AM,57.2,55.4,94,30.13,4.0,ESE,8.1,-,0.01,Rain,Rain,110,2013-01-10 15:02:00
9:53 AM,60.1,60.1,100,29.96,3.0,East,34.5,42.6,0.05,Rain,Heavy Rain,100,2013-01-10 15:53:00
10:53 AM,62.1,60.1,93,29.99,10.0,ESE,19.6,-,0.05,,Clear,120,2013-01-10 16:53:00
11:53 AM,63.0,60.1,90,29.98,10.0,SE,12.7,-,0.04,,Clear,130,2013-01-10 17:53:00
12:53 PM,64.0,61.0,90,29.96,10.0,South,6.9,-,0.03,,Clear,180,2013-01-10 18:53:00
1:53 PM,64.0,60.1,87,29.93,10.0,SE,13.8,-,0.04,,Scattered Clouds,130,2013-01-10 19:53:00
2:53 PM,64.0,60.1,87,29.89,10.0,SE,11.5,-,0.43,,Clear,140,2013-01-10 20:53:00
3:53 PM,64.9,60.1,84,29.89,10.0,South,12.7,-,N/A,,Partly Cloudy,180,2013-01-10 21:53:00
4:09 PM,64.4,60.8,88,29.89,10.0,South,12.7,-,N/A,,Mostly Cloudy,180,2013-01-10 22:09:00
4:53 PM,64.0,60.1,87,29.88,10.0,South,11.5,-,N/A,,Overcast,180,2013-01-10 22:53:00
5:20 PM,62.6,60.8,94,29.90,4.0,SSW,12.7,-,0.00,Rain,Light Rain,200,2013-01-10 23:20:00
5:31 PM,62.6,60.8,94,29.90,4.0,SSW,11.5,-,0.01,Rain,Light Rain,200,2013-01-10 23:31:00
5:41 PM,62.6,60.8,94,29.90,4.0,South,12.7,-,0.01,Rain,Light Rain,190,2013-01-10 23:41:00
5:53 PM,62.1,61.0,96,29.91,4.0,South,11.5,-,0.02,Rain,Light Rain,190,2013-01-10 23:53:00
6:12 PM,62.6,60.8,94,29.92,10.0,South,11.5,-,0.00,,Overcast,190,2013-01-11 00:12:00
6:53 PM,62.1,61.0,96,29.94,10.0,South,9.2,-,0.00,,Overcast,190,2013-01-11 00:53:00
7:53 PM,62.1,59.0,90,29.94,10.0,SW,9.2,-,N/A,,Mostly Cloudy,220,2013-01-11 01:53:00
8:53 PM,60.1,57.9,93,29.96,10.0,SSW,9.2,-,N/A,,Scattered Clouds,210,2013-01-11 02:53:00
9:53 PM,59.0,57.2,94,29.95,10.0,SSW,10.4,-,N/A,,Clear,210,2013-01-11 03:53:00
10:53 PM,57.9,55.9,93,29.96,10.0,SW,10.4,-,N/A,,Clear,220,2013-01-11 04:53:00